Location: Unspecified
(54.1780°N, 0.0000°E)
Time: 11:53:04
(UTC+00:00)

Altair - Visible Passes

Search period start: 05 August 2020 00:00
Search period end: 15 August 2020 00:00
Orbit: 1501 x 1682 km, 47.2° (Epoch: 04 August)

Date Brightness Start Highest point End Pass type
(mag) Time Alt. Az. Time Alt. Az. Time Alt. Az.
05 Aug 8.8 03:07:54 10° S 03:14:57 24° SE 03:21:52 10° E visible
06 Aug 8.9 02:43:09 10° S 02:49:57 23° SE 02:56:36 10° E visible
07 Aug 8.9 02:18:25 10° S 02:24:56 21° SE 02:31:20 10° E visible
08 Aug 8.9 01:54:28 12° S 01:59:56 20° SE 02:06:02 10° E visible
09 Aug 8.9 01:30:33 13° SSE 01:34:57 18° SE 01:40:40 10° E visible
09 Aug 8.1 03:29:01 10° SW 03:37:41 42° SSE 03:46:08 10° E visible
10 Aug 8.9 01:06:37 14° SSE 01:09:57 17° SE 01:15:16 10° E visible
10 Aug 8.1 03:04:38 12° SW 03:12:37 40° SSE 03:20:59 10° E visible
11 Aug 8.9 00:42:40 14° SE 00:44:58 15° SE 00:49:48 10° E visible
11 Aug 8.2 02:40:40 16° SSW 02:47:33 38° SSE 02:55:51 10° E visible
12 Aug 9.0 00:18:40 13° SE 00:20:00 14° SE 00:24:14 10° E visible
12 Aug 8.2 02:16:40 19° SSW 02:22:30 37° SSE 02:30:42 10° E visible
12 Aug 9.0 23:54:38 12° SE 23:55:01 13° SE 23:58:31 10° ESE visible
13 Aug 8.2 01:52:38 22° SSW 01:57:26 35° SSE 02:05:33 10° E visible
13 Aug 7.8 03:51:43 10° WSW 04:00:54 55° S 04:09:48 10° E visible
13 Aug 9.1 23:30:34 11° ESE 23:30:34 11° ESE 23:32:31 10° ESE visible
14 Aug 8.2 01:28:34 25° S 01:32:23 33° SE 01:40:22 10° E visible
14 Aug 7.8 03:26:36 10° WSW 03:35:48 54° SSE 03:44:42 10° E visible
